St. Augustine, FL

5:52 PM EDT on April 23, 2018 (GMT -0400)
Saint Augustine

Weather History for KSGJ - January, 2000

Change the Weather History Date:

Tuesday, January 25, 2000

  Actual Average Record
Temperature  
Mean Temperature 43 °F -  
Max Temperature 51 °F 62 °F 83 °F (1990)
Min Temperature 35 °F 45 °F 24 °F (2003)
Degree Days  
Heating Degree Days 22    
Moisture  
Dew Point 27 °F    
Average Humidity 55    
Maximum Humidity 75    
Minimum Humidity 32    
Precipitation  
Precipitation 0.00 in - - ()
Sea Level Pressure  
Sea Level Pressure 29.80 in    
Wind  
Wind Speed 13 mph (West)    
Max Wind Speed 18 mph    
Max Gust Speed 25 mph    
Visibility 10 miles    
Events      
Averages and records for this station are not official NWS values.
T = Trace of Precipitation, MM = Missing Value Source: NWS Daily Summary

Daily Weather History Graph

Daily Weather History Graph

Search for Another Location

Airport or City:

Astronomy

Jan. 25, 2000 Rise Set
Actual Time 7:19 AM EST 5:56 PM EST
Civil Twilight 6:53 AM EST 6:21 PM EST
Nautical Twilight 6:25 AM EST 6:50 PM EST
Astronomical Twilight 5:56 AM EST 7:19 PM EST
Moon 10:51 PM EST (1/25) 10:33 AM EST (1/25)
Length of Visible Light 11h 27m
Length of Day
10h 36m
Waning Gibbous, 76% of the Moon is Illuminated
Jan 25
Waning Gibbous
Jan 28
Last Quarter
Feb 5
New
Feb 12
First Quarter
Feb 19
Full

Hourly Weather History & Observations

Time (EST) Temp. Windchill Dew Point Humidity Pressure Visibility Wind Dir Wind Speed Gust Speed Precip Events Conditions
12:15 AM 41.0 °F 33.9 °F 30.2 °F 65% 29.78 in 10.0 mi WNW 12.7 mph 23.0 mph N/A   Overcast
12:35 AM 41.0 °F 32.2 °F 32.0 °F 70% 29.78 in 10.0 mi NW 18.4 mph 24.2 mph N/A   Overcast
12:55 AM 42.8 °F 35.4 °F 30.2 °F 61% 29.77 in 10.0 mi WNW 15.0 mph 25.3 mph N/A   Overcast
1:15 AM 42.8 °F 36.6 °F 30.2 °F 61% 29.77 in 10.0 mi WNW 11.5 mph 21.9 mph N/A   Overcast
1:35 AM 42.8 °F 35.4 °F 30.2 °F 61% 29.76 in 10.0 mi WNW 15.0 mph 25.3 mph N/A   Overcast
1:55 AM 42.8 °F 37.0 °F 32.0 °F 66% 29.76 in 10.0 mi WNW 10.4 mph 19.6 mph N/A   Overcast
2:15 AM 42.8 °F 35.1 °F 32.0 °F 66% 29.76 in 10.0 mi NW 16.1 mph 25.3 mph N/A   Overcast
2:35 AM 42.8 °F 35.1 °F 30.2 °F 61% 29.76 in 10.0 mi NW 16.1 mph 21.9 mph N/A   Overcast
2:55 AM 42.8 °F 37.0 °F 30.2 °F 61% 29.76 in 10.0 mi WNW 10.4 mph 21.9 mph N/A   Overcast
3:15 AM 42.8 °F 36.6 °F 30.2 °F 61% 29.77 in 10.0 mi WNW 11.5 mph 20.7 mph N/A   Overcast
3:35 AM 41.0 °F 33.9 °F 30.2 °F 65% 29.77 in 10.0 mi West 12.7 mph 19.6 mph N/A   Scattered Clouds
3:55 AM 39.2 °F 31.6 °F 30.2 °F 70% 29.78 in 10.0 mi West 12.7 mph - N/A   Clear
4:15 AM 39.2 °F 32.5 °F 30.2 °F 70% 29.79 in 10.0 mi West 10.4 mph - N/A   Clear
4:35 AM 39.2 °F 31.6 °F 30.2 °F 70% 29.79 in 10.0 mi West 12.7 mph 18.4 mph N/A   Clear
4:55 AM 39.2 °F 32.5 °F 28.4 °F 65% 29.80 in 10.0 mi West 10.4 mph 19.6 mph N/A   Clear
5:15 AM 37.4 °F 30.3 °F 28.4 °F 70% 29.80 in 10.0 mi West 10.4 mph - N/A   Clear
5:35 AM 37.4 °F 29.8 °F 28.4 °F 70% 29.81 in 10.0 mi West 11.5 mph - N/A   Clear
5:55 AM 37.4 °F 30.3 °F 28.4 °F 70% 29.82 in 10.0 mi West 10.4 mph 19.6 mph N/A   Clear
6:15 AM 37.4 °F 30.3 °F 28.4 °F 70% 29.83 in 10.0 mi West 10.4 mph 18.4 mph N/A   Clear
6:35 AM 35.6 °F 27.5 °F 28.4 °F 75% 29.83 in 10.0 mi West 11.5 mph 18.4 mph N/A   Clear
6:55 AM 35.6 °F 28.0 °F 28.4 °F 75% 29.83 in 10.0 mi West 10.4 mph - N/A   Clear
7:15 AM 35.6 °F 28.0 °F 28.4 °F 75% 29.84 in 10.0 mi West 10.4 mph - N/A   Clear
7:35 AM 35.6 °F 28.0 °F 28.4 °F 75% 29.84 in 10.0 mi West 10.4 mph - N/A   Clear
7:55 AM 35.6 °F 29.2 °F 28.4 °F 75% 29.85 in 10.0 mi West 8.1 mph - N/A   Clear
8:15 AM 35.6 °F 28.0 °F 28.4 °F 75% 29.85 in 10.0 mi West 10.4 mph - N/A   Partly Cloudy
8:35 AM 37.4 °F 29.3 °F 28.4 °F 70% 29.86 in 10.0 mi West 12.7 mph 17.3 mph N/A   Partly Cloudy
8:55 AM 37.4 °F 28.9 °F 28.4 °F 70% 29.86 in 10.0 mi West 13.8 mph 18.4 mph N/A   Partly Cloudy
9:15 AM 37.4 °F 29.3 °F 28.4 °F 70% 29.85 in 10.0 mi WNW 12.7 mph 20.7 mph N/A   Partly Cloudy
9:35 AM 39.2 °F 31.2 °F 28.4 °F 65% 29.85 in 10.0 mi WNW 13.8 mph 17.3 mph N/A   Clear
9:55 AM 39.2 °F 31.2 °F 28.4 °F 65% 29.86 in 10.0 mi West 13.8 mph 20.7 mph N/A   Clear
10:15 AM 39.2 °F 32.5 °F 28.4 °F 65% 29.86 in 10.0 mi West 10.4 mph 21.9 mph N/A   Clear
10:35 AM 42.8 °F 36.2 °F 28.4 °F 57% 29.86 in 10.0 mi West 12.7 mph 19.6 mph N/A   Clear
10:55 AM 42.8 °F 36.6 °F 28.4 °F 57% 29.85 in 10.0 mi West 11.5 mph 18.4 mph N/A   Clear
11:15 AM 44.6 °F 39.2 °F 28.4 °F 53% 29.84 in 10.0 mi West 10.4 mph 16.1 mph N/A   Clear
11:35 AM 44.6 °F 39.2 °F 26.6 °F 49% 29.83 in 10.0 mi West 10.4 mph 17.3 mph N/A   Clear
11:55 AM 46.4 °F 40.1 °F 26.6 °F 46% 29.82 in 10.0 mi WSW 15.0 mph 19.6 mph N/A   Clear
12:15 PM 48.2 °F - 24.8 °F 40% 29.81 in 10.0 mi WSW 11.5 mph 20.7 mph N/A   Clear
12:35 PM 48.2 °F - 24.8 °F 40% 29.80 in 10.0 mi West 13.8 mph 20.7 mph N/A   Clear
12:55 PM 48.2 °F - 24.8 °F 40% 29.79 in - WSW 10.4 mph 21.9 mph N/A   Clear
1:15 PM 50.0 °F - 24.8 °F 37% 29.78 in 10.0 mi West 16.1 mph 20.7 mph N/A   Clear
1:35 PM 50.0 °F - 24.8 °F 37% 29.77 in 10.0 mi SW 16.1 mph 21.9 mph N/A   Clear
1:55 PM 50.0 °F - 24.8 °F 37% 29.77 in 10.0 mi WSW 11.5 mph 19.6 mph N/A   Clear
2:15 PM 50.0 °F - 23.0 °F 35% 29.76 in 10.0 mi West 16.1 mph 25.3 mph N/A   Clear
2:35 PM 50.0 °F - 24.8 °F 37% 29.77 in 10.0 mi West 13.8 mph 23.0 mph N/A   Clear
2:55 PM 51.8 °F - 24.8 °F 35% 29.77 in 10.0 mi West 10.4 mph - N/A   Clear
3:15 PM 50.0 °F - 21.2 °F 32% 29.76 in 10.0 mi West 15.0 mph 23.0 mph N/A   Clear
3:35 PM 50.0 °F - 23.0 °F 35% 29.76 in 10.0 mi WSW 10.4 mph 23.0 mph N/A   Clear
3:55 PM 50.0 °F - 23.0 °F 35% 29.77 in 10.0 mi West 13.8 mph 18.4 mph N/A   Clear
4:15 PM 50.0 °F - 21.2 °F 32% 29.77 in 10.0 mi WSW 16.1 mph 20.7 mph N/A   Clear
4:35 PM 48.2 °F - 21.2 °F 34% 29.77 in 10.0 mi West 15.0 mph 21.9 mph N/A   Clear
4:55 PM 48.2 °F - 19.4 °F 32% 29.78 in 10.0 mi West 15.0 mph 21.9 mph N/A   Clear
5:15 PM 48.2 °F - 21.2 °F 34% 29.79 in 10.0 mi West 11.5 mph 21.9 mph N/A   Clear
5:35 PM 46.4 °F 40.4 °F 21.2 °F 37% 29.80 in 10.0 mi West 13.8 mph 21.9 mph N/A   Clear
5:55 PM 46.4 °F 42.4 °F 21.2 °F 37% 29.80 in 10.0 mi West 8.1 mph - N/A   Clear
6:15 PM 44.6 °F 40.7 °F 21.2 °F 39% 29.81 in 10.0 mi WSW 6.9 mph - N/A   Clear
6:35 PM 44.6 °F 40.7 °F 23.0 °F 43% 29.81 in 10.0 mi WSW 6.9 mph - N/A   Clear
6:55 PM 44.6 °F 39.7 °F 23.0 °F 43% 29.82 in 10.0 mi West 9.2 mph - N/A   Clear
7:15 PM 42.8 °F 38.6 °F 23.0 °F 46% 29.82 in 10.0 mi WSW 6.9 mph - N/A   Clear
7:35 PM 42.8 °F 38.6 °F 23.0 °F 46% 29.83 in 10.0 mi West 6.9 mph - N/A   Clear
7:55 PM 42.8 °F 38.6 °F 23.0 °F 46% 29.84 in 10.0 mi West 6.9 mph - N/A   Clear
8:15 PM 42.8 °F 39.3 °F 23.0 °F 46% 29.85 in 10.0 mi West 5.8 mph - N/A   Clear
8:35 PM 41.0 °F 37.1 °F 24.8 °F 53% 29.85 in 10.0 mi West 5.8 mph - N/A   Clear
8:55 PM 41.0 °F 39.0 °F 24.8 °F 53% 29.86 in 10.0 mi West 3.5 mph - N/A   Clear
9:15 PM 39.2 °F 37.0 °F 24.8 °F 56% 29.86 in 10.0 mi West 3.5 mph - N/A   Clear
9:35 PM 39.2 °F 37.0 °F 24.8 °F 56% 29.87 in 10.0 mi West 3.5 mph - N/A   Clear
9:55 PM 39.2 °F 35.9 °F 24.8 °F 56% 29.87 in 10.0 mi WSW 4.6 mph - N/A   Clear
10:15 PM 37.4 °F 34.9 °F 24.8 °F 60% 29.88 in 10.0 mi West 3.5 mph - N/A   Clear
10:35 PM 37.4 °F 33.8 °F 24.8 °F 60% 29.89 in 10.0 mi West 4.6 mph - N/A   Clear
10:55 PM 37.4 °F 33.8 °F 23.0 °F 56% 29.89 in 10.0 mi West 4.6 mph - N/A   Clear
11:15 PM 37.4 °F 32.1 °F 21.2 °F 52% 29.89 in 10.0 mi WNW 6.9 mph - N/A   Clear
11:35 PM 37.4 °F 33.8 °F 21.2 °F 52% 29.89 in 10.0 mi WNW 4.6 mph - N/A   Clear
11:55 PM 37.4 °F 33.8 °F 21.2 °F 52% 29.89 in 10.0 mi WNW 4.6 mph - N/A   Clear